Find Starlink 1371

NORAD ID: 45542 Int'l Des: 2020-025 Owner: SPXS Country: US Constellation: starlink operational
LEOCIRCULAR

Current View

Loading 3D Globe...

About Starlink 1371

Starlink 1371 (NORAD 45542) is a starlink constellation satellite (v1.0) launched Apr 22, 2020 by SPXS of US. It operates in LEO, CIRCULAR orbit with a mass of 260.00 kg.

About Starlink 1371

Description loading...

Upcoming Passes

Passes for default location (London). Set your location on the main map for personalized predictions.

Altitude History

Loading altitude history...

Two-Line Element Set

1 45542U 20025M 26169.68484875 .00061147 00000-0 63164-3 0 9995
2 45542 53.0449 320.7289 0002382 208.6521 151.4363 15.64203546341059
Epoch: Jun 18, 2026 • Age: 11 hours

Current Status

Altitude 381.6 km
Velocity 7.69 km/s
Sub-Earth Point 45.77°N, 49.72°E
Launch Date Apr 22, 2020
Age 6.1 years
Type internet

Technical Details

Classification Payload
Mass 260.00 kg
Dry Mass 248.00 kg
Total Mass 260.00 kg
Length 0.20 m
Diameter 2.80 m
Span 9.00 m
Shape Box + pan
Manufacturer SPXS
Bus Type Starlink
Phase Status In Orbit
Owner/State SPXS/US

Most Searched